Location: Newark
(47.2667°N, 0.8333°E)
Time: 02:06:17
(UTC+00:00)

Envisat - Visible Passes

Search period start: 21 January 2020 00:00
Search period end: 31 January 2020 00:00
Orbit: 764 x 766 km, 98.1° (Epoch: 20 January)

Date Brightness Start Highest point End Pass type
(mag) Time Alt. Az. Time Alt. Az. Time Alt. Az.
21 Jan 6.1 05:23:23 10° NE 05:26:24 16° E 05:29:24 10° SE visible
21 Jan 3.0 07:00:55 10° N 07:06:00 75° WNW 07:11:04 10° SSW visible
21 Jan 4.3 18:18:54 10° SSW 18:23:41 42° W 18:28:32 10° NNW visible
22 Jan 3.9 06:24:12 10° NNE 06:29:12 53° E 06:34:09 10° S visible
22 Jan 3.0 17:41:44 10° SSE 17:46:49 87° WSW 17:51:56 10° NNW visible
22 Jan 6.3 19:24:38 10° WSW 19:26:36 12° W 19:28:34 10° WNW visible
23 Jan 5.3 05:47:57 10° NE 05:52:11 26° E 05:56:23 10° SSE visible
23 Jan 5.3 18:45:12 10° SSW 18:49:22 25° W 18:53:34 10° NW visible
24 Jan 6.3 05:12:52 10° ENE 05:14:58 12° E 05:17:03 10° ESE visible
24 Jan 3.1 06:49:36 10° NNE 06:54:43 89° ESE 06:59:49 10° SSW visible
24 Jan 3.9 18:07:24 10° S 18:12:21 52° W 18:17:20 10° NNW visible
25 Jan 4.4 06:13:00 10° NNE 06:17:51 43° E 06:22:40 10° S visible
25 Jan 3.0 17:30:28 10° SSE 17:35:32 76° ENE 17:40:38 10° N visible
25 Jan 6.0 19:12:13 10° WSW 19:15:09 15° W 19:18:06 10° NW visible
26 Jan 5.7 05:36:57 10° NE 05:40:47 21° E 05:44:35 10° SE visible
26 Jan 4.9 18:33:30 10° SSW 18:37:59 31° W 18:42:30 10° NNW visible
27 Jan 3.4 06:38:19 10° NNE 06:43:25 72° ESE 06:48:30 10° S visible
27 Jan 3.5 17:55:59 10° S 18:01:01 65° WSW 18:06:06 10° NNW visible
28 Jan 4.8 06:01:51 10° NNE 06:06:29 35° E 06:11:06 10° SSE visible
28 Jan 3.0 17:19:16 10° SSE 17:24:16 62° ENE 17:29:18 10° N visible
28 Jan 5.8 19:00:09 10° SW 19:03:43 19° W 19:07:18 10° NW visible
29 Jan 6.0 05:26:05 10° NE 05:29:21 17° E 05:32:38 10° SE visible
29 Jan 4.5 18:21:53 10° SSW 18:26:37 39° W 18:31:22 10° NNW visible
30 Jan 3.8 06:27:04 10° NNE 06:32:06 58° E 06:37:06 10° S visible
30 Jan 3.2 17:44:38 10° SSE 17:49:43 81° WSW 17:54:50 10° NNW visible
30 Jan 6.4 19:28:11 10° W 19:29:33 11° W 19:30:56 10° WNW visible
